St. James, MN

10:47 PM CDT on August 19, 2019 (GMT -0500)
Saint James Municipal

Weather History for KJYG - June, 2019

Change the Weather History Date:

Sunday, June 2, 2019

  Actual Average Record
Temperature  
Mean Temperature 65 °F -  
Max Temperature 80 °F 75 °F 91 °F (1988)
Min Temperature 50 °F 51 °F 38 °F (1969)
Growing Degree Days 15 (Base 50)    
Moisture  
Dew Point 47 °F    
Average Humidity 54    
Maximum Humidity 82    
Minimum Humidity 30    
Precipitation  
Precipitation 0.00 in - - ()
Sea Level Pressure  
Sea Level Pressure 29.99 in    
Wind  
Wind Speed 6 mph (West)    
Max Wind Speed 13 mph    
Max Gust Speed 25 mph    
Visibility 10 miles    
Events      
Averages and records for this station are not official NWS values.
T = Trace of Precipitation, MM = Missing Value Source: NWS Daily Summary

Daily Weather History Graph

Daily Weather History Graph

Search for Another Location

Airport or City:

Astronomy

Jun. 02, 2019 Rise Set
Actual Time 5:38 AM CDT 8:54 PM CDT
Civil Twilight 5:02 AM CDT 9:30 PM CDT
Nautical Twilight 4:16 AM CDT 10:16 PM CDT
Astronomical Twilight 3:20 AM CDT 11:13 PM CDT
Moon 5:22 AM CDT (6/2) 8:12 PM CDT (6/2)
Length of Visible Light 16h 27m
Length of Day
15h 16m
Waning Crescent, 1% of the Moon is Illuminated
Jun 2
Waning Crescent
Jun 3
New
Jun 10
First Quarter
Jun 17
Full
Jun 25
Last Quarter

Hourly Weather History & Observations

Time (CDT) Temp. Dew Point Humidity Pressure Visibility Wind Dir Wind Speed Gust Speed Precip Events Conditions
12:16 AM 57.2 °F 44.6 °F 63% 29.97 in 10.0 mi NNW 8.1 mph - N/A   Clear
12:35 AM 55.4 °F 46.4 °F 72% 29.97 in 10.0 mi NNW 5.8 mph - N/A   Clear
12:55 AM 53.6 °F 46.4 °F 77% 29.97 in 10.0 mi NW 5.8 mph - N/A   Clear
12:56 AM 55.4 °F 46.4 °F 72% 29.97 in 10.0 mi NW 5.8 mph - N/A   Clear
1:15 AM 53.6 °F 46.4 °F 77% 29.97 in 10.0 mi NW 4.6 mph - N/A   Clear
1:35 AM 51.8 °F 46.4 °F 82% 29.97 in 10.0 mi NW 4.6 mph - N/A   Clear
1:55 AM 53.6 °F 46.4 °F 77% 29.97 in 10.0 mi Calm Calm - N/A   Clear
2:15 AM 53.6 °F 44.6 °F 72% 29.98 in 10.0 mi WSW 4.6 mph - N/A   Clear
2:35 AM 51.8 °F 46.4 °F 82% 29.98 in 10.0 mi West 4.6 mph - N/A   Clear
2:36 AM 51.8 °F 46.4 °F 82% 29.98 in 10.0 mi West 4.6 mph - N/A   Clear
2:55 AM 53.6 °F 44.6 °F 72% 29.98 in 10.0 mi West 3.5 mph - N/A   Clear
3:15 AM 51.8 °F 44.6 °F 76% 29.98 in 10.0 mi Calm Calm - N/A   Clear
3:35 AM 51.8 °F 46.4 °F 82% 29.99 in 10.0 mi SW 5.8 mph - N/A   Clear
3:36 AM 51.8 °F 46.4 °F 82% 29.99 in 10.0 mi SW 6.9 mph - N/A   Clear
3:55 AM 51.8 °F 44.6 °F 76% 29.99 in 10.0 mi SW 6.9 mph - N/A   Clear
4:15 AM 50.0 °F 44.6 °F 82% 29.99 in 10.0 mi SW 3.5 mph - N/A   Clear
4:36 AM 51.8 °F 44.6 °F 76% 29.99 in 10.0 mi Calm Calm - N/A   Clear
4:55 AM 50.0 °F 44.6 °F 82% 29.99 in 10.0 mi Calm Calm - N/A   Clear
4:56 AM 50.0 °F 44.6 °F 82% 29.99 in 10.0 mi Calm Calm - N/A   Clear
5:15 AM 50.0 °F 44.6 °F 82% 29.99 in 10.0 mi Calm Calm - N/A   Clear
5:36 AM 50.0 °F 44.6 °F 82% 30.00 in 10.0 mi SW 3.5 mph - N/A   Clear
5:55 AM 51.8 °F 44.6 °F 76% 30.00 in 10.0 mi SW 3.5 mph - N/A   Clear
6:15 AM 50.0 °F 44.6 °F 82% 30.01 in 10.0 mi WSW 3.5 mph - N/A   Clear
6:36 AM 51.8 °F 46.4 °F 82% 30.01 in 10.0 mi Calm Calm - N/A   Clear
6:55 AM 53.6 °F 46.4 °F 77% 30.02 in 10.0 mi Calm Calm - N/A   Clear
7:15 AM 55.4 °F 46.4 °F 72% 30.02 in 10.0 mi Calm Calm - N/A   Clear
7:35 AM 55.4 °F 48.2 °F 77% 30.02 in 10.0 mi WSW 3.5 mph - N/A   Clear
7:37 AM 55.4 °F 48.2 °F 77% 30.02 in 10.0 mi West 3.5 mph - N/A   Clear
7:55 AM 60.8 °F 46.4 °F 59% 30.02 in 10.0 mi West 4.6 mph - N/A   Clear
8:15 AM 60.8 °F 46.4 °F 59% 30.02 in 10.0 mi West 3.5 mph - N/A   Clear
8:35 AM 62.6 °F 48.2 °F 59% 30.02 in 10.0 mi SW 4.6 mph - N/A   Clear
8:55 AM 64.4 °F 46.4 °F 52% 30.03 in 10.0 mi WSW 8.1 mph - N/A   Clear
9:15 AM 66.2 °F 44.6 °F 46% 30.03 in 10.0 mi WSW 6.9 mph - N/A   Clear
9:35 AM 68.0 °F 44.6 °F 43% 30.03 in 10.0 mi WSW 6.9 mph - N/A   Clear
9:55 AM 69.8 °F 42.8 °F 38% 30.03 in 10.0 mi WSW 8.1 mph - N/A   Clear
9:56 AM 69.8 °F 42.8 °F 38% 30.03 in 10.0 mi WSW 8.1 mph - N/A   Clear
10:16 AM 69.8 °F 42.8 °F 38% 30.03 in 10.0 mi SW 8.1 mph - N/A   Clear
10:35 AM 71.6 °F 42.8 °F 35% 30.03 in 10.0 mi WSW 4.6 mph - N/A   Clear
10:56 AM 71.6 °F 42.8 °F 35% 30.02 in 10.0 mi WSW 10.4 mph - N/A   Clear
11:15 AM 73.4 °F 44.6 °F 36% 30.03 in 10.0 mi WSW 8.1 mph - N/A   Clear
11:35 AM 73.4 °F 42.8 °F 33% 30.03 in 10.0 mi West 9.2 mph - N/A   Clear
11:56 AM 75.2 °F 44.6 °F 34% 30.02 in 10.0 mi West 11.5 mph - N/A   Clear
12:15 PM 75.2 °F 44.6 °F 34% 30.02 in 10.0 mi West 8.1 mph 16.1 mph N/A   Clear
12:35 PM 75.2 °F 44.6 °F 34% 30.01 in 10.0 mi WSW 9.2 mph - N/A   Clear
12:36 PM 75.2 °F 44.6 °F 34% 30.01 in 10.0 mi SW 9.2 mph - N/A   Clear
12:55 PM 77.0 °F 46.4 °F 34% 30.00 in 10.0 mi WNW 10.4 mph - N/A   Clear
1:15 PM 77.0 °F 44.6 °F 32% 30.00 in 10.0 mi West 8.1 mph - N/A   Clear
1:16 PM 77.0 °F 44.6 °F 32% 30.00 in 10.0 mi West 9.2 mph - N/A   Clear
1:35 PM 78.8 °F 46.4 °F 32% 30.00 in 10.0 mi WNW 12.7 mph 17.3 mph N/A   Clear
1:36 PM 78.8 °F 46.4 °F 32% 30.00 in 10.0 mi WNW 12.7 mph 17.3 mph N/A   Clear
1:55 PM 78.8 °F 46.4 °F 32% 29.99 in 10.0 mi WNW 9.2 mph - N/A   Clear
2:15 PM 78.8 °F 44.6 °F 30% 29.99 in 10.0 mi NW 9.2 mph 17.3 mph N/A   Clear
2:16 PM 78.8 °F 44.6 °F 30% 29.99 in 10.0 mi WNW 8.1 mph 17.3 mph N/A   Clear
2:35 PM 78.8 °F 46.4 °F 32% 29.99 in 10.0 mi WNW 9.2 mph 17.3 mph N/A   Clear
2:55 PM 78.8 °F 46.4 °F 32% 29.98 in 10.0 mi West 9.2 mph - N/A   Scattered Clouds
3:15 PM 78.8 °F 46.4 °F 32% 29.98 in 10.0 mi West 12.7 mph - N/A   Clear
3:16 PM 78.8 °F 46.4 °F 32% 29.98 in 10.0 mi West 11.5 mph - N/A   Clear
3:35 PM 78.8 °F 46.4 °F 32% 29.97 in 10.0 mi West 11.5 mph 25.3 mph N/A   Clear
3:55 PM 78.8 °F 46.4 °F 32% 29.97 in 10.0 mi WNW 9.2 mph 16.1 mph N/A   Clear
4:16 PM 78.8 °F 48.2 °F 34% 29.96 in 10.0 mi West 12.7 mph - N/A   Scattered Clouds
4:35 PM 78.8 °F 48.2 °F 34% 29.96 in 10.0 mi West 12.7 mph 16.1 mph N/A   Scattered Clouds
4:36 PM 78.8 °F 48.2 °F 34% 29.96 in 10.0 mi West 12.7 mph 16.1 mph N/A   Scattered Clouds
4:55 PM 78.8 °F 48.2 °F 34% 29.95 in 10.0 mi West 8.1 mph 16.1 mph N/A   Scattered Clouds
5:16 PM 80.6 °F 48.2 °F 32% 29.95 in 10.0 mi West 12.7 mph 16.1 mph N/A   Scattered Clouds
5:35 PM 78.8 °F 48.2 °F 34% 29.95 in 10.0 mi West 9.2 mph - N/A   Scattered Clouds
5:55 PM 78.8 °F 48.2 °F 34% 29.95 in 10.0 mi West 4.6 mph - N/A   Scattered Clouds
6:16 PM 78.8 °F 48.2 °F 34% 29.95 in 10.0 mi West 6.9 mph - N/A   Scattered Clouds
6:35 PM 78.8 °F 48.2 °F 34% 29.94 in 10.0 mi West 5.8 mph - N/A   Mostly Cloudy
6:55 PM 78.8 °F 48.2 °F 34% 29.94 in 10.0 mi WNW 4.6 mph - N/A   Scattered Clouds
7:15 PM 77.0 °F 50.0 °F 39% 29.94 in 10.0 mi WNW 5.8 mph - N/A   Scattered Clouds
7:16 PM 77.0 °F 50.0 °F 39% 29.94 in 10.0 mi WNW 5.8 mph - N/A   Scattered Clouds
7:35 PM 75.2 °F 51.8 °F 44% 29.95 in 10.0 mi WNW 4.6 mph - N/A   Scattered Clouds
7:55 PM 75.2 °F 51.8 °F 44% 29.94 in 10.0 mi West 3.5 mph - N/A   Scattered Clouds
8:15 PM 73.4 °F 53.6 °F 50% 29.94 in 10.0 mi Calm Calm - N/A   Clear
8:35 PM 73.4 °F 53.6 °F 50% 29.95 in 10.0 mi SSW 3.5 mph - N/A   Scattered Clouds
8:36 PM 73.4 °F 53.6 °F 50% 29.95 in 10.0 mi SW 3.5 mph - N/A   Scattered Clouds
8:55 PM 71.6 °F 51.8 °F 50% 29.95 in 10.0 mi SW 4.6 mph - N/A   Scattered Clouds
9:15 PM 71.6 °F 53.6 °F 53% 29.95 in 10.0 mi SW 5.8 mph - N/A   Scattered Clouds
9:35 PM 69.8 °F 55.4 °F 60% 29.96 in 10.0 mi SW 5.8 mph - N/A   Scattered Clouds
9:55 PM 68.0 °F 53.6 °F 60% 29.96 in 10.0 mi Calm Calm - N/A   Scattered Clouds
9:56 PM 68.0 °F 53.6 °F 60% 29.96 in 10.0 mi Calm Calm - N/A   Scattered Clouds
10:15 PM 68.0 °F 55.4 °F 64% 29.97 in 10.0 mi SW 3.5 mph - N/A   Clear
10:36 PM 66.2 °F 55.4 °F 68% 29.98 in 10.0 mi Calm Calm - N/A   Mostly Cloudy
10:55 PM 66.2 °F 55.4 °F 68% 29.98 in 10.0 mi Calm Calm - N/A   Scattered Clouds
10:56 PM 66.2 °F 55.4 °F 68% 29.98 in 10.0 mi Calm Calm - N/A   Scattered Clouds
11:15 PM 64.4 °F 53.6 °F 68% 29.98 in 10.0 mi NNE 6.9 mph - N/A   Clear
11:36 PM 66.2 °F 51.8 °F 60% 29.99 in 10.0 mi NNE 4.6 mph - N/A   Clear
11:55 PM 64.4 °F 53.6 °F 68% 29.99 in 10.0 mi ENE 3.5 mph - N/A   Clear
11:56 PM 64.4 °F 53.6 °F 68% 29.99 in 10.0 mi ENE 3.5 mph - N/A   Clear